Change the Weather History Date:

Monday, October 24, 2011

  Actual Average Record
Temperature  
Mean Temperature 38 °F -  
Max Temperature 42 °F 40 °F 66 °F (2014)
Min Temperature 33 °F 32 °F 23 °F (1997)
Degree Days  
Heating Degree Days 28    
Moisture  
Dew Point 32 °F    
Average Humidity 80    
Maximum Humidity 87    
Minimum Humidity 70    
Precipitation  
Precipitation 0.00 in - - ()
Sea Level Pressure  
Sea Level Pressure 29.97 in    
Wind  
Wind Speed 9 mph (NW)    
Max Wind Speed 15 mph    
Max Gust Speed 21 mph    
Visibility 10 miles    
Events      
Averages and records for this station are not official NWS values.
T = Trace of Precipitation, MM = Missing Value Source: NWS Daily Summary

Daily Weather History Graph

Daily Weather History Graph

Search for Another Location

Airport or City:

Trip Planner

Search our weather history database for the weather conditions in past years. The results will help you decide how hot, cold, wet, or windy it might be!

Date:

Astronomy

Oct. 24, 2011 Rise Set
Actual Time 7:54 AM CDT 6:12 PM CDT
Civil Twilight 7:21 AM CDT 6:45 PM CDT
Nautical Twilight 6:44 AM CDT 7:22 PM CDT
Astronomical Twilight 6:07 AM CDT 7:59 PM CDT
Moon 5:03 AM CDT (10/24) 4:45 PM CDT (10/24)
Length of Visible Light 11h 23m
Length of Day
10h 18m
Waning Crescent, 7% of the Moon is Illuminated
Oct 24
Waning Crescent
Oct 26
New
Nov 2
First Quarter
Nov 10
Full
Nov 18
Last Quarter

Hourly Weather History & Observations

Time (CDT) Temp. Windchill Dew Point Humidity Pressure Visibility Wind Dir Wind Speed Gust Speed Precip Events Conditions
12:13 AM 39.2 °F 31.2 °F 32.0 °F 75% 29.88 in 10.0 mi NNW 13.8 mph 20.7 mph N/A   Overcast
12:33 AM 39.2 °F 32.0 °F 32.0 °F 75% 29.88 in 10.0 mi North 11.5 mph - N/A   Mostly Cloudy
12:53 AM 39.2 °F 32.0 °F 33.8 °F 81% 29.89 in 10.0 mi NW 11.5 mph - N/A   Overcast
1:13 AM 37.4 °F 28.5 °F 33.8 °F 87% 29.89 in 10.0 mi WNW 15.0 mph - N/A   Overcast
1:33 AM 37.4 °F 28.9 °F 33.8 °F 87% 29.90 in 10.0 mi WNW 13.8 mph - N/A   Overcast
1:53 AM 37.4 °F 29.3 °F 33.8 °F 87% 29.90 in 10.0 mi NNW 12.7 mph - N/A   Overcast
2:13 AM 37.4 °F 30.3 °F 33.8 °F 87% 29.88 in 10.0 mi North 10.4 mph - N/A   Mostly Cloudy
2:33 AM 37.4 °F 30.8 °F 32.0 °F 81% 29.89 in 10.0 mi North 9.2 mph - N/A   Mostly Cloudy
2:53 AM 37.4 °F 30.8 °F 32.0 °F 81% 29.90 in 10.0 mi North 9.2 mph - N/A   Mostly Cloudy
3:13 AM 37.4 °F 31.4 °F 32.0 °F 81% 29.91 in 10.0 mi NNW 8.1 mph - N/A   Mostly Cloudy
3:33 AM 35.6 °F 28.6 °F 30.2 °F 81% 29.92 in 10.0 mi NNW 9.2 mph - N/A   Overcast
3:53 AM 35.6 °F 29.2 °F 30.2 °F 81% 29.92 in 10.0 mi North 8.1 mph - N/A   Overcast
4:13 AM 35.6 °F 29.2 °F 30.2 °F 81% 29.92 in 10.0 mi North 8.1 mph - N/A   Overcast
4:33 AM 35.6 °F 28.6 °F 30.2 °F 81% 29.91 in 10.0 mi North 9.2 mph - N/A   Overcast
4:53 AM 35.6 °F 29.9 °F 30.2 °F 81% 29.91 in 10.0 mi North 6.9 mph - N/A   Mostly Cloudy
5:13 AM 35.6 °F 29.9 °F 30.2 °F 81% 29.93 in 10.0 mi NNW 6.9 mph - N/A   Scattered Clouds
5:33 AM 35.6 °F 29.9 °F 30.2 °F 81% 29.94 in 10.0 mi NNW 6.9 mph - N/A   Mostly Cloudy
5:53 AM 35.6 °F 29.9 °F 30.2 °F 81% 29.94 in 10.0 mi NNW 6.9 mph - N/A   Overcast
6:14 AM 35.6 °F 28.0 °F 30.2 °F 81% 29.96 in 10.0 mi NNW 10.4 mph - N/A   Overcast
6:33 AM 35.6 °F 29.2 °F 30.2 °F 81% 29.96 in 10.0 mi North 8.1 mph - N/A   Overcast
6:53 AM 35.6 °F 28.6 °F 30.2 °F 81% 29.97 in 10.0 mi North 9.2 mph - N/A   Overcast
7:13 AM 33.8 °F 26.4 °F 30.2 °F 87% 29.97 in 10.0 mi West 9.2 mph - N/A   Overcast
7:33 AM 33.8 °F 27.0 °F 30.2 °F 87% 29.97 in 10.0 mi West 8.1 mph - N/A   Overcast
7:53 AM 33.8 °F 27.7 °F 30.2 °F 87% 29.96 in 10.0 mi West 6.9 mph - N/A   Overcast
8:13 AM 33.8 °F 28.6 °F 30.2 °F 87% 29.97 in 10.0 mi NW 5.8 mph - N/A   Overcast
8:33 AM 33.8 °F 26.4 °F 30.2 °F 87% 29.98 in 10.0 mi West 9.2 mph - N/A   Overcast
8:53 AM 33.8 °F 27.0 °F 30.2 °F 87% 29.99 in 10.0 mi West 8.1 mph - N/A   Overcast
9:13 AM 33.8 °F 27.7 °F 30.2 °F 87% 29.99 in 10.0 mi West 6.9 mph - N/A   Overcast
9:33 AM 33.8 °F 26.4 °F 30.2 °F 87% 29.99 in 10.0 mi WNW 9.2 mph - N/A   Overcast
10:13 AM 33.8 °F 27.0 °F 30.2 °F 87% 30.00 in 10.0 mi NNW 8.1 mph - N/A   Overcast
10:33 AM 33.8 °F 28.6 °F 30.2 °F 87% 30.01 in 10.0 mi NW 5.8 mph - N/A   Overcast
10:53 AM 33.8 °F 28.6 °F 30.2 °F 87% 30.01 in 10.0 mi West 5.8 mph - N/A   Overcast
11:13 AM 35.6 °F 32.8 °F 30.2 °F 81% 30.02 in 10.0 mi West 3.5 mph - N/A   Overcast
11:33 AM 33.8 °F 29.6 °F 30.2 °F 87% 30.02 in 10.0 mi NW 4.6 mph - N/A   Mostly Cloudy
11:53 AM 33.8 °F 30.8 °F 30.2 °F 87% 30.01 in 10.0 mi North 3.5 mph - N/A   Scattered Clouds
12:14 PM 33.8 °F 29.6 °F 30.2 °F 87% 30.01 in 10.0 mi NW 4.6 mph - N/A   Clear
12:33 PM 35.6 °F 32.8 °F 30.2 °F 81% 30.02 in 10.0 mi NW 3.5 mph - N/A   Clear
12:53 PM 35.6 °F - 30.2 °F 81% 30.02 in 10.0 mi Calm Calm - N/A   Clear
1:13 PM 37.4 °F - 30.2 °F 75% 30.01 in 10.0 mi Calm Calm - N/A   Clear
1:33 PM 37.4 °F - 30.2 °F 75% 30.00 in 10.0 mi Calm Calm - N/A   Clear
1:53 PM 39.2 °F 37.0 °F 30.2 °F 70% 30.00 in 10.0 mi NNW 3.5 mph - N/A   Clear
2:13 PM 39.2 °F 35.9 °F 30.2 °F 70% 30.00 in 10.0 mi North 4.6 mph - N/A   Clear
2:33 PM 39.2 °F - 30.2 °F 70% 30.00 in 10.0 mi Calm Calm - N/A   Clear
2:53 PM 41.0 °F 38.0 °F 33.8 °F 76% 29.99 in 10.0 mi South 4.6 mph - N/A   Clear
3:12 PM 41.0 °F 38.0 °F 33.8 °F 76% 29.98 in 10.0 mi South 4.6 mph - N/A   Clear
3:33 PM 42.8 °F 38.6 °F 33.8 °F 70% 29.99 in 10.0 mi South 6.9 mph - N/A   Clear
3:53 PM 41.0 °F 36.4 °F 33.8 °F 76% 29.99 in 10.0 mi SSE 6.9 mph - N/A   Clear
4:13 PM 41.0 °F 36.4 °F 33.8 °F 76% 29.99 in 10.0 mi SSE 6.9 mph - N/A   Clear
4:33 PM 41.0 °F 36.4 °F 33.8 °F 76% 29.99 in 10.0 mi SSE 6.9 mph - N/A   Clear
4:53 PM 41.0 °F 37.1 °F 33.8 °F 76% 29.99 in 10.0 mi SSE 5.8 mph - N/A   Clear
5:13 PM 41.0 °F 38.0 °F 33.8 °F 76% 30.00 in 10.0 mi SSE 4.6 mph - N/A   Clear
5:53 PM 41.0 °F 38.0 °F 33.8 °F 76% 29.99 in 10.0 mi SSE 4.6 mph - N/A   Clear
6:13 PM 42.8 °F 41.1 °F 33.8 °F 70% 30.00 in 10.0 mi SSE 3.5 mph - N/A   Clear
6:32 PM 41.0 °F - 33.8 °F 76% 30.00 in 10.0 mi Calm Calm - N/A   Clear
6:53 PM 41.0 °F - 33.8 °F 76% 30.00 in 10.0 mi Calm Calm - N/A   Clear
7:13 PM 42.8 °F 38.6 °F 33.8 °F 70% 30.01 in 10.0 mi SSE 6.9 mph - N/A   Clear
7:33 PM 42.8 °F 39.3 °F 33.8 °F 70% 30.01 in 10.0 mi SSE 5.8 mph - N/A   Clear
7:53 PM 42.8 °F 39.3 °F 35.6 °F 76% 30.01 in 10.0 mi SSE 5.8 mph - N/A   Clear
8:13 PM 42.8 °F 38.6 °F 35.6 °F 76% 30.01 in 10.0 mi SSE 6.9 mph - N/A   Clear
8:33 PM 42.8 °F 39.3 °F 33.8 °F 70% 30.01 in 10.0 mi SSE 5.8 mph - N/A   Clear
9:13 PM 42.8 °F 38.0 °F 35.6 °F 76% 30.02 in 10.0 mi SSE 8.1 mph - N/A   Clear
9:33 PM 42.8 °F 38.6 °F 35.6 °F 76% 30.03 in 10.0 mi SSE 6.9 mph - N/A   Clear
9:53 PM 42.8 °F 38.0 °F 35.6 °F 76% 30.02 in 10.0 mi SSE 8.1 mph - N/A   Clear
10:13 PM 42.8 °F 38.6 °F 37.4 °F 81% 30.03 in 10.0 mi SSE 6.9 mph - N/A   Clear
10:33 PM 44.6 °F 40.7 °F 39.2 °F 81% 30.04 in 10.0 mi South 6.9 mph - N/A   Clear
10:53 PM 42.8 °F 41.1 °F 39.2 °F 87% 30.04 in 10.0 mi South 3.5 mph - N/A   Clear
11:13 PM 42.8 °F - 37.4 °F 81% 30.05 in 10.0 mi Calm Calm - N/A   Clear
11:33 PM 42.8 °F 41.1 °F 37.4 °F 81% 30.04 in 10.0 mi SSW 3.5 mph - N/A   Clear
11:53 PM 42.8 °F - 39.2 °F 87% 30.04 in 10.0 mi Calm Calm - N/A   Clear